STARLINK-1875 (47160 NORAD) Tracking and Keplerian Element Data
This shows tracking and keplerian element data for the satellite.
Feedback or suggestion? Click here.
Element | Value |
Catalog | 47160 |
Name | STARLINK-1875 |
Epoch Orbit | 177 |
Epoch Day | 15.91667824 |
Epoch Year | 2021 |
RAAN | 98.5763 |
Inclination | 53.0553 |
Eccentricity | 0.000152 |
Argument of Perigee | 46.8658 |
Mean Anonmoly | 347.3663 |
Mean Motion | 15.62782365 |
Decay Rate | -0.00010478 |
L1 | 1 47160U 20088AQ 21015.91667824 -.00010478 00000-0 -10861-3 0 9999 |
L2 | 2 47160 53.0553 98.5763 0001520 46.8658 347.3663 15.62782365 1776 |
Live tracking and technical data element details for STARLINK-1875 (NORAD 47160). STARLINK-1875 can be tracked NOW for your location showing map with azimuth and elevation plus other details from your city location.
Track the satellite on the map from your city or location and see movement details for azimuth, elevation, latitude, longitude, range, height, and movement on the map or in text.
IsCatalogInMostPopularTable: catalog: 47160, numindb: 19
Update: records affected: 1
GetName: 47160 STARLINK-1875
Hit Count: updated at: Sun, 17 Jan 2021 09:17:43 GMT